Tracking 19242 objects as of 20-Sep-2018
HD Live streaming from Space Station
objects crossing your sky now

ECHO 1 DEB (METAL OBJ)

Track ECHO 1 DEB (METAL OBJ) now!
10-day predictions


NORAD ID: 53
Int'l Code: 1960-009E
Perigee: 1,533.9 km
Apogee: 1,689.7 km
Inclination: 47.3 °
Period: 118.3 minutes
Semi major axis: 7982 km
RCS: 0.6038 m2 (medium)
Launch date: August 12, 1960
Source: United States (US)
Launch site: AIR FORCE EASTERN TEST RANGE (AFETR)

Note: This is SATELLITE DEBRIS
aabbcc
Your satellite tracking list
Your tracking list is empty




NASA's NSSDC Master Catalog

Two Line Element Set (TLE):
1 00053U 60009E   18262.50486345 -.00000085  00000-0  00000+0 0  9990
2 00053  47.2771  63.1776 0097593 359.9186   0.1574 12.17214944590985
Source of the keplerian elements: AFSPC